Showing default

ASTRA 2G, 40364

Orbit data source: Space-Track

ASTRA 2G, 40364 is a payload satellite owned by SES (LU) in GEO that was launched on Sat, 27 Dec 2014 UTC via a PROTON-M/BRIZ-M launch vehicle from the Tyuratam Missile And Space Complex (TTMTR). Payload-class satellites include a variety of spacecraft equipped with specific instruments for various scientific and technological missions. These include communications satellites like Starlink; space stations such as the ISS; scientific satellites like the Hubble; Earth observation satellites from companies like Planet Labs, Umbra, and HawkEye 360; GPS; miniature CubeSats for education and research; and military/defense satellites.

Not visible in the next 10 days
Identifier
40364, 2014-089A
Orbit
GEO
Country
Flag of LULU / SES
Related business
Manufacturer
Airbus/Toulouse
Mission
Operational Commercial Communications
Bus & Motor
EUROSTAR 3000, R-4D?
Mass
6,002 kg wet, ~3,000 kg dry
Launch date (UTC)
2014-12-27 (11 years ago)
Launch vehicle
PROTON-M/BRIZ-M
Launch site
Tyuratam Missile And Space Complex (TTMTR)
Object type
Payload
Rocket body
Debris
Shape & HBR
Box + 2 Pan, 19.9 m
Radar Cross Section
50.725 m², Large (>1 m²)

Expand to show TLE details & history
Last TLE update: 13 hours ago

TLE from 13 hours ago
0 ASTRA 2G
1 40364U 14089A   25304.83127110  .00000161  00000-0  00000+0 0  9993
2 40364   0.0583  35.2892 0000819  39.1245 293.4540  1.00273252 39670
Epoch: 2025-10-31T19:57Z
TLE epoch observation values (Epoch: 2025-10-31T19:57:01.823Z)
Latitude
-0.00405°
Longitude
28.1943°
Altitude
35,784.29 km
Speed
3.075 km/s
True Right ascension
00h 31m 17s
True Declination
0° 00' 15"
Sunlit
Object was in daylight at epoch
Visualization orbit readout
Latitude
Unknown
Longitude
Unknown
Altitude
Unknown
Speed
Unknown
Apparent Right ascension
Unknown
Apparent Declination
Unknown
Sunlit
N/A
Visualization observer readout
Local Sidereal Time
04:28:26
Azimuth
Unknown
Elevation
Unknown
Doppler factor
Unknown
Orbital elements
Apogee altitude
35,790.707 km
Perigee altitude
35,783.801 km
Semi-major axis
42,165.391 km
Eccentricity
0.00008
Inclination
0.0583°
RAAN
35.2892°
Arg. of periapsis
39.1245°
True anomaly
293.44539°
Mean anomaly
293.454°
Eccentric anomaly
293.4497°
Mean motion
0.25067 °/min
Orbital period
1,436.13 mins
BSTAR
0
Loading maneuver chart data...
Computing Atmospheric mass density...
Loading historical data...
Loading historical data...
Loading historical data...
Loading historical data...
Loading historical data...
Loading historical data...
Loading historical data...
Other satellites on launch #89 in the year 2014 (2014-12-27 UTC)

Documentation

Showing up to 5 results
|